Volver al catálogo

SL-12 R/B(2)

ActivoHEO
NORAD 25788·ROCKET BODY·🇷🇺 Russia

Lanzado Jun 18, 1999 desde Baikonur Cosmodrome

Loading…

Próximos Pases (próximas 24 horas)

TLE

ActualizadoSource: Space-Track

Época: Sep 13, 2026, 17:49 UTC

1 25788U 99033D   26256.74285457 -.00000150  00000-0  00000-0 0  9994
2 25788  17.5058 358.9802 5075960 110.2566 319.1695  1.85811743184775

Sigue SL-12 R/B(2) en tiempo real con AllMySat

Download on the App Store